sat.trackr.live / text

‹ back to catalog

STARLINK-31305

NORAD 59232 · 2024-049B

PAYLOAD ACTIVE UNKNOWN

§ Identity

Operator
Country
US
Launch date
2024-03-16
Launch site
AFETR
Launch vehicle
Mass (kg)
RCS (m²)

Purposes: comms

External: N2YO · Heavens-Above · Gunter

§ Orbital elements

Epoch: 2026-05-25T03:51:06.487200Z

Period
94.27 min
Inclination
43.0017°
Eccentricity
0.0000684
Mean motion
15.27582631 rev/d
Perigee alt
482.6 km
Apogee alt
483.5 km
Semi-major
6,861.2 km
B*
5.6599e-5
RAAN
71.4525°
Arg perigee
280.7742°
Mean anomaly
79.3033°
Rev number
12,408

§ Raw data

STARLINK-313051 59232U 24049B   26145.16049175  .00001296  00000+0  56599-4 0  99962 59232  43.0017  71.4525 0000684 280.7742  79.3033 15.27582631124080

JSON: /api/v1/satellites/59232 · /tle

For live sub-satellite position, see the globe view (requires WebGL).

§ Visibility from observer

Set your observer location to see the next 7 days of passes ≥ 10°. The values pass through the URL so the page stays shareable.

No JS? Fill the form by hand. The geolocation button needs JavaScript.